STARLINK-5097, 53995

Orbit data source: Space-Track

STARLINK-5097, 53995 is a payload satellite owned by SpaceX/Seattle (US) in LEO that was launched on Wed, 05 Oct 2022 UTC via an FALCON 9 launch vehicle from the Air Force Western Test Range (AFWTR). Payload-class satellites include a variety of spacecraft equipped with specific instruments for various scientific and technological missions. These include communications satellites like Starlink; space stations such as the ISS; scientific satellites like the Hubble; Earth observation satellites from companies like Planet Labs, Umbra, and HawkEye 360; GPS; miniature CubeSats for education and research; and military/defense satellites.

Loading next visibility...
Identifier
53995, 2022-125AH
Orbit
LEO
Country
Flag of USUS
Related business
Manufacturer
SpaceX/Seattle
Mission
Operational Commercial Communications
Bus & Motor
STARLINK, Unknown motor
Mass
305 kg wet, ~290 kg dry
Launch date (UTC)
2022-10-05 (4 years ago)
Launch vehicle
FALCON 9
Launch site
Air Force Western Test Range (AFWTR)
Object type
Payload
Rocket body
Debris
Shape & HBR
Box + 1 Pan, 10.1 m
Radar Cross Section
13.562 m², Large (>1 m²)

Expand to show TLE details & history
Last TLE update: 3 days ago

TLE from 3 days ago
0 STARLINK-5097
1 53995U 22125AH  26170.23909796 -.00000074  00000-0  13433-4 0  9994
2 53995  53.1619 118.1028 0001391  86.2536 273.8614 15.08828997204782
Epoch: 2026-06-19T05:44Z
TLE epoch observation values (Epoch: 2026-06-19T05:44:18.063Z)
Latitude
-0.00007°
Longitude
124.55655°
Altitude
540.604 km
Speed
7.593 km/s
True Right ascension
07h 52m 24s
True Declination
0° 00' 00"
Sunlit
Object was in daylight at epoch
Visualization orbit readout
Latitude
Unknown
Longitude
Unknown
Altitude
Unknown
Speed
Unknown
Apparent Right ascension
Unknown
Apparent Declination
Unknown
Sunlit
N/A
Visualization observer readout
Local Sidereal Time
21:25:25
Azimuth
Unknown
Elevation
Unknown
Doppler factor
Unknown
Orbital elements
Apogee altitude
540.993 km
Perigee altitude
539.069 km
Semi-major axis
6,918.168 km
Eccentricity
0.00014
Inclination
53.1619°
RAAN
118.1028°
Arg. of periapsis
86.2536°
True anomaly
273.8455°
Mean anomaly
273.8614°
Eccentric anomaly
273.85345°
Mean motion
3.77187 °/min
Orbital period
95.44 mins
BSTAR
0.000013433
Loading maneuver chart data...
Computing Atmospheric mass density...
Loading historical data...
Loading historical data...
Loading historical data...
Loading historical data...
Loading historical data...
Loading historical data...
Loading historical data...

Documentation

Showing up to 5 results
|